Location: Heiligenberg
(48.5381°N, 7.3897°E)
Time: 21:58:42
(UTC+00:00)

NOSS 2-2 (D) - Pass Details

Date: 26 May 2022
Orbit: 437 x 1764 km, 63.3° (Epoch: 11 June)

Event Time Altitude Azimuth Distance (km) Brightness Sun altitude
Rises 23:59:12 0° 318° (NW) 2,946 7.6 -20.0°
Reaches altitude 10° 00:01:11 10° 318° (NW) 2,169 6.9 -20.0°
Maximum altitude 00:06:09 86° 232° (SW) 883 4.2 -19.8°
Enters shadow 00:11:38 17° 143° (SE) 2,456 6.2 -19.7°
